This demonstration page uses our WeatherBlox Daily Observations layout. Learn more.

38.88101, -77.10428

Hourly Observations for April 13, 2020

Temp ( °F °C ) Dew Point ( °F °C ) Humidity (%) Winds ( mph kmh ) Pressure ( in mb ) Visibility ( mi km ) Precip ( " mm )
12:52 am 00:52 Cloudy with Rain 60 15.6 58 14.4 93 93 SSE 14 22 29.93 1014 5 8.0467 0.1 2.54
1:45 am 01:45 Cloudy 60 15.6 57 13.9 90 90 SSE 10 17 29.89 1012 10 16.0934 0.01 0.254
1:52 am 01:52 Cloudy 60 15.6 57 13.9 90 90 SSE 13 20 29.88 1012 10 16.0934 0.01 0.254
2:03 am 02:03 Cloudy with Light Rain 60 15.6 57 13.9 90 90 SSE 16 26 29.88 1012 4 6.43736 0.02 0.508
2:52 am 02:52 Cloudy 61 16.1 58 14.4 90 90 S 16 26 29.85 1011 10 16.0934 0.02 0.508
3:52 am 03:52 Cloudy with Light Rain 61 16.1 58 14.4 90 90 SSE 13 20 29.78 1009 8 12.87472 0.1 2.54
4:24 am 04:24 Cloudy with Heavy Rain 61 16.1 59 15 93 93 S 13 20 29.77 1008 2.5 4.02335 0.19 4.826
4:35 am 04:35 Cloudy with Thunderstorms 60 15.6 59 15 96 96 SW 13 20 29.8 1009 3 4.82802 0.32 8.128
4:41 am 04:41 Cloudy with Heavy Thunderstorms 61 16.1 59 15 93 93 S 10 17 29.78 1008 1 1.60934 0.36 9.144
4:52 am 04:52 Cloudy with Heavy Thunderstorms 60 15.6 59 15 96 96 S 5 7 29.75 1008 2.5 4.02335 0.77 19.558
4:55 am 04:55 Cloudy with Light Thunderstorms 60 15.6 59 15 96 96 SSW 8 13 29.75 1007 4 6.43736 0.01 0.254
5:10 am 05:10 Cloudy with Light Rain 61 16.1 59 15 93 93 S 8 13 29.74 1007 8 12.87472 0.02 0.508
5:47 am 05:47 Cloudy with Rain 63 17 59 15 88 88 S 9 15 29.71 1006 5 8.0467 0.05 1.27
5:52 am 05:52 Cloudy with Light Rain 62 16.7 59 15 90 90 S 12 19 29.7 1006 5 8.0467 0.06 1.524
6:10 am 06:10 Cloudy with Heavy Rain 62 16.7 60 15.6 93 93 SSE 13 20 29.68 1005 2.5 4.02335 0.06 1.524
6:15 am 06:15 Cloudy with Rain 62 16.7 60 15.6 93 93 SSE 13 20 29.67 1005 4 6.43736 0.09 2.286
6:31 am 06:31 Cloudy with Rain 62 16.7 60 15.6 93 93 SW 8 13 29.68 1005 3 4.82802 0.15 3.81
6:34 am 06:34 Cloudy with Rain 62 16.7 60 15.6 93 93 WSW 8 13 29.68 1005 2.5 4.02335 0.16 4.064
6:41 am 06:41 Cloudy with Heavy Rain 62 16.7 61 16.1 96 96 W 9 15 29.68 1005 1.5 2.41401 0.21 5.334
6:43 am 06:43 Cloudy with Heavy Rain 62 16.7 61 16.1 96 96 WSW 9 15 29.69 1005 3 4.82802 0.24 6.096
6:47 am 06:47 Cloudy with Heavy Rain 63 17 61 16 94 94 WSW 8 13 29.69 1005 2.5 4.02335 0.28 7.112
6:52 am 06:52 Cloudy with Heavy Rain 62 16.7 61 16.1 96 96 SW 7 11 29.68 1005 2 3.21868 0.32 8.128
7:19 am 07:19 Cloudy with Heavy Rain 62 16.7 61 16.1 96 96 VRB 3 6 29.66 1004 1.25 2.011675 0.28 7.112
7:27 am 07:27 Cloudy with Heavy Rain 62 16.7 61 16.1 96 96 S 6 9 29.66 1004 1.5 2.41401 0.37 9.398
7:32 am 07:32 Cloudy with Heavy Rain 61 16.1 61 16.1 100 100 Calm 29.64 1004 3 4.82802 0.41 10.414
7:42 am 07:42 Cloudy with Heavy Rain 63 17.2 61 16.1 93 93 WNW 8 13 29.66 1004 2.5 4.02335 0.44 11.176
7:47 am 07:47 Cloudy with Heavy Rain 63 17 61 16 94 94 WNW 13 20 29.66 1004 0.5 0.80467 0.51 12.954
7:52 am 07:52 Cloudy with Heavy Rain 63 17.2 62 16.7 97 97 VRB 3 6 29.64 1004 0.5 0.80467 0.67 17.018
8:04 am 08:04 Cloudy with Rain 63 17.2 62 16.7 97 97 S 8 13 29.64 1004 1.5 2.41401 0.16 4.064
8:10 am 08:10 Cloudy with Rain 63 17.2 62 16.7 97 97 SSE 9 15 29.62 1003 3 4.82802 0.18 4.572
8:17 am 08:17 Cloudy with Rain 62 16.7 61 16.1 96 96 SE 7 11 29.62 1003 3 4.82802 0.21 5.334
8:33 am 08:33 Cloudy with Light Rain 63 17.2 62 16.7 97 97 S 14 22 29.62 1003 7 11.26538 0.21 5.334
8:52 am 08:52 Cloudy with Light Rain 64 17.8 62 16.7 93 93 S 16 26 29.58 1002 9 14.48406 0.22 5.588
9:03 am 09:03 Cloudy with Light Rain 65 18.3 63 17.2 93 93 S 18 30 29.57 1001 4 6.43736 0.01 0.254
9:10 am 09:10 Cloudy with Light Rain 65 18.3 63 17.2 93 93 S 15 24 29.56 1001 9 14.48406 0.02 0.508
9:39 am 09:39 Cloudy 67 19.4 63 17.2 87 87 S 21 33 29.51 999 10 16.0934 0.02 0.508
9:52 am 09:52 Cloudy 67 19.4 64 17.8 91 91 S 15 24 29.51 999 10 16.0934 0.02 0.508
10:02 am 10:02 Cloudy 66 18.9 63 17.2 90 90 S 16 26 29.51 999 10 16.0934 0 0
10:44 am 10:44 Cloudy 67 19.4 63 17.2 87 87 S 13 20 29.52 1000 10 16.0934 0 0
10:52 am 10:52 Cloudy 67 19.4 63 17.2 87 87 S 15 24 29.51 999 10 16.0934 0 0
11:52 am 11:52 Cloudy with Light Rain 68 20 64 17.8 87 87 S 18 30 29.47 998 10 16.0934 0.001 0.001
12:22 pm 12:22 Cloudy 69 20.6 65 18.3 87 87 S 13 20 29.46 998 10 16.0934 0.01 0.254
12:52 pm 12:52 Cloudy with Light Rain 69 20.6 65 18.3 87 87 SSW 9 15 29.47 998 7 11.26538 0.01 0.254
12:57 pm 12:57 Cloudy with Light Rain 71 21.7 66 18.9 84 84 SW 12 19 29.47 998 2.5 4.02335 0.001 0.001
1:04 pm 13:04 Cloudy with Heavy Thunderstorms 70 21.1 65 18.3 84 84 SSW 28 44 29.46 998 2.5 4.02335 0.04 1.016
1:08 pm 13:08 Mostly Cloudy with Thunderstorms 68 20 61 16.1 78 78 SSW 22 35 29.45 997 1 1.60934 0.05 1.27
1:12 pm 13:12 Windy with Storms Likely 67 19.4 61 16.1 81 81 SW 20 31 29.44 997 6 9.65604 0.11 2.794
1:26 pm 13:26 Partly Cloudy 72 22.2 66 18.9 82 82 SSW 12 19 29.44 997 10 16.0934 0.11 2.794
1:52 pm 13:52 Mostly Cloudy 76 24.4 67 19.4 74 74 SSW 18 30 29.43 997 10 16.0934 0.12 3.048
2:38 pm 14:38 Partly Cloudy with Nearby Thunderstorms 78 25.6 65 18.3 64 64 SW 22 35 29.46 998 10 16.0934 0.01 0.254
2:52 pm 14:52 Partly Cloudy 79 26.1 64 17.8 60 60 SW 21 33 29.46 998 10 16.0934 0.01 0.254
3:04 pm 15:04 Mostly Cloudy with Thunderstorms 80 26.7 62 16.7 54 54 WSW 20 31 29.48 998 10 16.0934 0 0
3:27 pm 15:27 Mostly Cloudy 74 23.3 64 17.8 71 71 NW 8 13 29.51 999 10 16.0934 0 0
3:52 pm 15:52 Mostly Cloudy 77 25 61 16.1 58 58 WNW 9 15 29.52 1000 10 16.0934 0 0
4:52 pm 16:52 Mostly Cloudy 79 26.1 54 12.2 42 42 WNW 15 24 29.59 1002 10 16.0934 0 0
5:52 pm 17:52 Partly Cloudy 76 24.4 50 10 40 40 WNW 25 41 29.66 1004 10 16.0934 0 0
6:52 pm 18:52 Mostly Sunny 74 23.3 50 10 43 43 NW 12 19 29.72 1006 10 16.0934 0 0
7:52 pm 19:52 Mostly Clear 70 21.1 48 8.9 46 46 NW 10 17 29.78 1009 10 16.0934 0 0
8:52 pm 20:52 Mostly Clear 68 20 44 6.7 42 42 NW 13 20 29.85 1011 10 16.0934 0 0
9:52 pm 21:52 Mostly Clear 62 16.7 39 3.9 43 43 NW 12 19 29.92 1013 10 16.0934 0 0
10:52 pm 22:52 Mostly Clear 59 15 36 2.2 42 42 NW 23 37 29.96 1015 10 16.0934 0 0
11:52 pm 23:52 Mostly Clear 56 13.3 35 1.7 46 46 NW 18 30 30 1016 10 16.0934 0 0

Powered by AerisWeather